Location: Evergreen Manor
(41.4083°N, 81.4939°W)
Time: 00:15:49
(UTC+00:00)

Cosmos 2266 Rocket - Pass Details

Date: 11 December 2019
Orbit: 933 x 1009 km, 82.9° (Epoch: 27 January)

Event Time Altitude Azimuth Distance (km) Brightness Sun altitude
Rises 11:29:05 0° 354° (N) 3,687 6.8 -13.2°
Reaches altitude 10° 11:31:39 10° 357° (N) 2,724 6.1 -12.7°
Maximum altitude 11:37:52 70° 81° (E) 1,017 4.3 -11.6°
Drops below altitude 10° 11:43:55 10° 165° (SSE) 2,658 6.8 -10.6°
Sets 11:46:23 0° 168° (SSE) 3,591 7.5 -10.2°
